Find Maqsat-B

NORAD ID: 25024 Int'l Des: 1997-066 Owner: ESA Country: I-ESA operational
MEOELLIPTICALHEO_ELLIPTICAL

リアルタイム位置

3D地球を読み込み中...

Maqsat-Bについて

説明を読み込み中...

次回通過

Passes for default location (London). Set your location on the main map for personalized predictions.

高度履歴

Loading altitude history...

軌道要素

1 25024U 97066B 26104.81521528 -.00000015 00000-0 -10966-3 0 9999
2 25024 7.9755 14.9574 6509497 81.4972 347.5657 3.08947395321088
Epoch: Apr 14, 2026 • Age: 7 hours

現在のステータス

高度 13309.3 km
速度 4.52 km/s
衛星直下点 -5.92°S, 86.52°E
打ち上げ日 Oct 30, 1997
運用期間 28.4 years
タイプ other

技術仕様

分類 Payload
質量 1400.00 kg
乾燥質量 1400.00 kg
総質量 3220.00 kg
長さ 1.10 m
直径 2.50 m
スパン 2.50 m
形状 Cone
製造者 KTHR
バスタイプ Maqsat-B
フェーズステータス Attached in Orbit
所有者/国 ESA/I-ESA

Most Searched